sat.trackr.live / text

‹ back to catalog

NORSAT 1

NORAD 42826 · 2017-042B

PAYLOAD ACTIVE UNKNOWN

§ Identity

Operator
Country
NOR
Launch date
2017-07-14
Launch site
TYMSC
Launch vehicle
Mass (kg)
RCS (m²)

External: N2YO · Heavens-Above · Gunter

§ Orbital elements

Epoch: 2026-05-25T00:10:29.049888Z

Period
95.13 min
Inclination
97.4433°
Eccentricity
0.0007876
Mean motion
15.13746625 rev/d
Perigee alt
519.3 km
Apogee alt
530.2 km
Semi-major
6,902.9 km
B*
3.4646e-4
RAAN
313.2489°
Arg perigee
153.9373°
Mean anomaly
206.2257°
Rev number
48,372

§ Raw data

NORSAT 11 42826U 17042B   26145.00728067  .00006186  00000+0  34646-3 0  99902 42826  97.4433 313.2489 0007876 153.9373 206.2257 15.13746625483721

JSON: /api/v1/satellites/42826 · /tle

For live sub-satellite position, see the globe view (requires WebGL).

§ Visibility from observer

Set your observer location to see the next 7 days of passes ≥ 10°. The values pass through the URL so the page stays shareable.

No JS? Fill the form by hand. The geolocation button needs JavaScript.